Accueil
METAR-TAF:

METAR-TAF

Aéroports :

Vannes, France

Aéroport de Vannes

latitude: 47-43-19N, longitude: 2-43-41W, altitude: 130 m

Observation

Le bulletin a été fait il y a 23 minutes, à 09:30 UTC
Vent 6 kt de ouest/sud-ouest, variant entre sud-ouest et ouest/nord-ouest
Température 18°C
Humidité 100%
Pression 1017 hPa
Visibilité: 3900 m
Ciel couvert à une hauteur de 300 ft
faible bruine, brume

METAR: LFRV 170930Z AUTO 25006KT 220V290 3900 -DZ BR OVC003 18/18 Q1017

Heure: 11:53 (09:53 UTC)


TAF: absent

Observations et prévisions météorologiques de plus de 4000 aéroports (messages METAR et TAF).

Les stations disponibles sont représentées par des disques jaunes et rouges sur la carte.

Passer la souris dessus pour voir le nom de la station.

Cliquer dessus pour voir les observations et prévisions météorologiques.

Pour changer de carte: cliquez sur les boutons verts avec une croix noire pour zoomer, sur le bouton vert avec un tiret pour effectuer un zoom arrière, ou sur les flèches vertes pour les cartes adjacentes.


METAR-TAF: